NOAA 16 DEB, 41163

Orbit data source: Space-Track

NOAA 16 DEB, 41163 is space debris in SSO originally from a launch on Thu, 21 Sep 2000 UTC launched from the Air Force Western Test Range (AFWTR). Debris objects in space refer to the collection of defunct objects orbiting the Earth. Examples of debris include non-operational satellites, rocket bodies, and fragments generated from explosions, collisions, or faulty payload assembly.

Loading next visibility...
Identifier
41163, 2000-055CW
Orbit
SSO
Country
Flag of USUS
Related business
Manufacturer
Unknown
Mission
Spacecraft
Bus & Motor
Unknown
Mass
Unknown
Launch date (UTC)
2000-09-21 (26 years ago)
Launch vehicle
Unknown
Launch site
Air Force Western Test Range (AFWTR)
Object type
Payload
Rocket body
Debris
Shape & HBR
Unknown shape, 0.1 m
Radar Cross Section
Small (<0.1 m²)

Expand to show TLE details & history
Last TLE update: 1 day ago

TLE from 1 day ago
0 NOAA 16 DEB
1 41163U 00055CW  26235.15518248  .00044129  00000-0  37698-2 0  9992
2 41163  99.0104 206.0446 0027024  65.0910 295.3113 14.97216714563222
Epoch: 2026-08-23T03:43Z
TLE epoch observation values (Epoch: 2026-08-23T03:43:27.766Z)
Latitude
0.00008°
Longitude
178.7236°
Altitude
570.516 km
Speed
7.58 km/s
True Right ascension
13h 44m 10s
True Declination
0° 00' 00"
Sunlit
Object was in daylight at epoch
Visualization orbit readout
Latitude
Unknown
Longitude
Unknown
Altitude
Unknown
Speed
Unknown
Apparent Right ascension
Unknown
Apparent Declination
Unknown
Sunlit
N/A
Visualization observer readout
Local Sidereal Time
21:35:00
Azimuth
Unknown
Elevation
Unknown
Doppler factor
Unknown
Orbital elements
Apogee altitude
591.356 km
Perigee altitude
553.789 km
Semi-major axis
6,950.709 km
Eccentricity
0.0027
Inclination
99.0104°
RAAN
206.0446°
Arg. of periapsis
65.091°
True anomaly
295.03095°
Mean anomaly
295.3113°
Eccentric anomaly
295.17117°
Mean motion
3.74541 °/min
Orbital period
96.12 mins
BSTAR
0.0037698
Loading maneuver chart data...
Computing Atmospheric mass density...
Loading historical data...
Loading historical data...
Loading historical data...
Loading historical data...
Loading historical data...
Loading historical data...
Loading historical data...

Documentation

Showing up to 5 results
|